Weather History for MMCU - March, 2013

Change the Weather History Date:

Wednesday, March 27, 2013

  Actual Average Record
Temperature  
Mean Temperature 66 °F -  
Max Temperature 81 °F 80 °F 89 °F (2002)
Min Temperature 51 °F 47 °F 37 °F (2005)
Cooling Degree Days 1    
Growing Degree Days 16 (Base 50)    
Moisture  
Dew Point 30 °F    
Average Humidity 21    
Maximum Humidity 37    
Minimum Humidity 11    
Precipitation  
Precipitation 0.00 in - - ()
Sea Level Pressure  
Sea Level Pressure 29.95 in    
Wind  
Wind Speed 5 mph ()    
Max Wind Speed 16 mph    
Max Gust Speed 36 mph    
Visibility 7.8 miles    
Events      
Averages and records for this station are not official NWS values.
T = Trace of Precipitation, MM = Missing Value Source: Averaged Metar Reports

Daily Weather History Graph

Daily Weather History Graph

Search for Another Location

Airport or City:

Trip Planner

Search our weather history database for the weather conditions in past years. The results will help you decide how hot, cold, wet, or windy it might be!

Date:

Astronomy

Mar. 27, 2013 Rise Set
Actual Time 5:59 AM MST 6:19 PM MST
Civil Twilight 5:35 AM MST 6:43 PM MST
Nautical Twilight 5:07 AM MST 7:10 PM MST
Astronomical Twilight 4:40 AM MST 7:38 PM MST
Moon 6:58 PM MST 5:56 AM MST
Length of Visible Light 13h 07m
Length of Day
12h 20m
Full, 100% of the Moon is Illuminated
Mar 27
Full
Apr 2
Last Quarter
Apr 10
New
Apr 18
First Quarter
Apr 25
Full

Hourly Weather History & Observations

Time (MST) Temp. Windchill Dew Point Humidity Pressure Visibility Wind Dir Wind Speed Gust Speed Precip Events Conditions
1:50 AM 51 °F - 24 °F 23% 29.84 in 1 mi Calm Calm - -  
4:50 AM 53 °F - 27 °F 24% 29.89 in 1 mi WSW 4.5 mph - -   Mostly Cloudy
5:46 AM 46.4 °F 42.4 °F 19.4 °F 34% 29.98 in 10.0 mi South 8.1 mph - N/A   Mostly Cloudy
6:40 AM 44.6 °F 42.2 °F 19.4 °F 37% 30.15 in 10.0 mi South 4.6 mph - N/A   Overcast
7:40 AM 55.4 °F - 26.6 °F 33% 30.01 in 10.0 mi Calm Calm - N/A   Overcast
7:50 AM 59 °F - 36 °F 29% 29.98 in 6 mi SSE 2.2 mph - -   Mostly Cloudy
8:40 AM 60.8 °F - 28.4 °F 29% 30.18 in 10.0 mi Calm Calm - N/A   Overcast
9:40 AM 66.2 °F - 30.2 °F 26% 30.17 in 10.0 mi NE 3.5 mph - N/A   Mostly Cloudy
10:40 AM 71.6 °F - 30.2 °F 22% 29.96 in 10.0 mi NE 5.8 mph - N/A   Mostly Cloudy
10:50 AM 72 °F - 38 °F 18% 29.93 in 6 mi South 4.5 mph - -   Clear
11:40 AM 75.2 °F - 30.2 °F 19% 30.13 in 10.0 mi ENE 8.1 mph - N/A   Mostly Cloudy
12:40 PM 77.0 °F - 32.0 °F 19% 30.09 in 10.0 mi NE 16.1 mph - N/A   Mostly Cloudy
1:40 PM 77.0 °F - 32.0 °F 19% 29.88 in 10.0 mi East 9.2 mph - N/A   Mostly Cloudy
1:45 PM 79 °F - 36 °F 12% 29.77 in 6 mi ENE 4.5 mph - -   Scattered Clouds
2:40 PM 80.6 °F - 30.2 °F 16% 30.03 in 10.0 mi ENE 6.9 mph - N/A   Mostly Cloudy
3:40 PM 80.6 °F - 30.2 °F 16% 30.01 in 10.0 mi North 3.5 mph - N/A   Mostly Cloudy
4:40 PM 78.8 °F - 30.2 °F 17% 29.81 in 10.0 mi East 5.8 mph - N/A   Mostly Cloudy
4:45 PM 79 °F - 34 °F 11% 29.64 in 6 mi East 4.5 mph - -   Mostly Cloudy
5:40 PM 75.2 °F - 30.2 °F 19% 30.01 in 10.0 mi East 11.5 mph - N/A   Mostly Cloudy
6:40 PM 77.0 °F - 28.4 °F 17% 30.03 in 10.0 mi SW 11.5 mph 35.7 mph N/A   Mostly Cloudy
7:40 PM 73.4 °F - 30.2 °F 20% 29.85 in 10.0 mi NW 13.8 mph - N/A   Mostly Cloudy
7:45 PM 74 °F - 35 °F 14% 29.66 in 1 mi NW 11.2 mph - -   Mostly Cloudy
8:40 PM 75.2 °F - 30.2 °F 19% 30.08 in 10.0 mi South 3.5 mph - N/A   Overcast
10:40 PM 70 °F - 33 °F 16% 29.70 in 1 mi West 4.5 mph - -   Mostly Cloudy